Find STARLINK-38222

NORAD ID: 799501234 Int'l Des: 2026-166A Constellation: starlink operational

Current View

Loading 3D Globe...

About STARLINK-38222

STARLINK-38222 (NORAD 799501234) is a starlink constellation satellite launched Jul 25, 2026

Upcoming Passes

Passes for default location (London). Set your location on the main map for personalized predictions.

Altitude History

Loading altitude history...

Two-Line Element Set

1 99999C 2026166A 26206.64701389-.02416300 00000-0 -604620-3 0 2062
2 99999 97.2850 222.0165 0001000 88.0279 229.4199 15.96976929 11
Epoch: Jul 25, 2026 • Age: 8 hours